Погода в Мене

Украина / Черниговская область     51˚31′27″N   32˚13′15″E
темп.,
°C
ветер,
м/с
пор.,
м/с
влажн.,
%
обл.,
%
осадки,
мм/ч
давл.,
гПа
погр.,
м
6 декабря, вс
вс623:00−6˚вюв412780 0.0 1035298
02:00−7˚вюв410770 0.0 1036240
05:00−7˚вюв410780 0.0 1036243
08:00−8˚вюв511760 0.0 1037260
11:00−4˚вюв511690 0.0 1037387
14:00−4˚вюв510750 0.0 1036402
17:00−6˚в512820 0.0 1036297
20:00−6˚вюв513820 0.0 1036387
7 декабря, пн
пн723:00−7˚вюв613820 0.0 1036413
02:00−8˚вюв512840 0.0 1037404
05:00−8˚вюв513840 0.0 1036377
08:00−8˚вюв513840 0.0 1036367
11:00−6˚вюв612770 0.0 1035471
14:00−5˚вюв612750 0.0 1034541
17:00−7˚в514760 0.0 1034421
20:00−7˚вюв513752 0.0 1034428
8 декабря, вт
вт823:00−8˚вюв513780 0.0 1034399
02:00−8˚в513790 0.0 1033365
05:00−8˚в511800 0.0 1033343
08:00−9˚в511830 0.0 1032350
11:00−6˚в612750 0.0 1032467
14:00−4˚в612720 0.0 1031562
17:00−6˚в513750 0.0 1031396
20:00−6˚вюв412750 0.0 1031349
9 декабря, ср
ср923:00−7˚в511750 0.0 1031307
02:00−7˚в511750 0.0 1032294
05:00−8˚в5117714 0.0 1031295
08:00−7˚в5117651 0.0 1031384
11:00−5˚вюв6117322 0.0 1031486
14:00−4˚вюв5117511 0.0 1029550
17:00−6˚вюв5127912 0.0 1029359
20:00−6˚вюв5127954 0.0 1030388
10 декабря, чт
чт1023:00−5˚вюв5117872 0.0 1030395
02:00−4˚вюв6127982 0.0 1030467
05:00−5˚вюв6118394 0.0 1029414
08:00−4˚вюв6128886 0.0 1029449
11:00−3˚вюв6118497 0.0 1029492
14:00−2˚вюв6108791 0.0 1029491
17:00−2˚вюв6128896 0.0 1029462
20:00−3˚вюв6138792 0.0 1028384